Regional Weather Roundup
Issued by NWS Goodland, KS

Home | Current Version | Previous Version | Graphics & Text | Print | Product List | Glossary On
Versions: 1 2 3 4 5 6 7 8 9 10 11 12 13 14 15 16 17 18 19 20 21 22 23 24 25 26 27 28 29 30 31 32 33 34 35 36 37 38 39 40 41 42 43 44 45 46 47 48 49 50
000
ASUS43 KGLD 010959
RWRGLD

GOODLAND FORECAST AREA HOURLY WEATHER ROUNDUP
NATIONAL WEATHER SERVICE GOODLAND KS
400 AM MDT SUN MAY 01 2016

...OFFICIAL OBSERVATIONS...

CITY           SKY/WX    TMP DP  RH WIND       PRES   REMARKS
GOODLAND KS    CLOUDY    34  32  92 N21G28    30.08R
HILL CITY KS   CLOUDY    41  38  89 NW15      30.01R
IMPERIAL NEB   CLOUDY    35  33  92 N21       30.12R
MCCOOK NEB     MOCLDY    37  34  89 N16       30.06R
AKRON CO       CLOUDY    32  30  92 N23       30.16R WCI  19
BURLINGTON CO  CLOUDY    34  30  85 N20G28    30.11R
LIMON CO       CLOUDY    32  30  92 N29G37    30.15R WCI  18
$$

...UNOFFICIAL OBSERVATIONS...

CITY           SKY/WX    TMP DP  RH WIND       PRES   REMARKS
COLBY KS       CLOUDY    36  36 100 N15G24    30.07R
GOVE KS          N/A     39  32  76 MISG        N/A
LENORA KS        N/A     38  32  79 MISG        N/A
NORTON KS      CLOUDY    39  34  81 NW16      30.02R
SHARON SPRINGS   N/A     36  33  88 NW16G23     N/A
KIT CARSON CO    N/A     34  31  89 MISG        N/A
YUMA CO          N/A     33  31  93 N12         N/A
$$




USA.gov is the U.S. government's official web portal to all federal, state and local government web resources and services.